Location: Chimay
(50.0486°N, 4.3171°E)
Time: 22:41:02
(UTC+00:00)

Cosmos 1867 - Pass Details

Date: 08 August 2020
Orbit: 777 x 798 km, 65.0° (Epoch: 23 September)

Event Time Altitude Azimuth Distance (km) Brightness Sun altitude
Rises 20:59:02 0° 202° (SSW) 3,269 6.5 -14.4°
Reaches altitude 10° 21:01:29 10° 198° (SSW) 2,347 5.7 -14.6°
Maximum altitude 21:06:44 54° 122° (ESE) 957 3.6 -15.2°
Drops below altitude 10° 21:12:02 10° 46° (NE) 2,374 6.1 -15.7°
Sets 21:14:31 0° 42° (NE) 3,310 6.9 -16.0°
